[[{"header":{"parameterUnit":"m.s-1","parameterCategory":1,"la1":30.2991,"la2":30.254,"lo1":-89.0895,"lo2":-89.0444,"dy":0.0017,"dx":0.0017,"nx":28,"ny":28,"refTime":"2025-03-11T09:00:00:Z","depth":0,"parameterNumber":2,"parameterNumberName":"U-component_of_WINDS"},"data":[0,0,0,0,0,0,0,0,0,0,0,0,0,0,0,0,0,0,0,0,0,0,0,0,0,0,0,0,0,0,0,0,0,0,0,0,0,0,0,0,0,0,0,0,0,0,0,0,0,0,0,0,0,0,0,0,0,0,1.2787,1.2788,0,1.2909,1.2911,1.2912,1.287,1.2868,1.2865,1.2862,1.2992,1.2998,1.3004,0,0,0,0,0,0,0,0,0,0,0,0,0,1.2518,1.2524,1.2786,1.2788,1.279,1.2909,1.2911,1.2913,1.2871,1.2868,1.2864,1.2861,1.299,1.2998,1.3005,0,0,0,0,0,0,0,0,0,0,0,0,0,1.2638,1.2525,1.2786,1.2783,1.2784,1.2909,1.2911,1.2913,1.2872,1.2868,1.2863,1.286,1.2988,1.2997,1.3006,1.3142,0,0,1.3033,1.3037,0,0,0,0,0,0,0,0,1.2631,1.2647,1.2782,1.2783,1.2785,1.287,1.2864,1.299,1.2873,1.2838,1.2862,1.2858,1.2955,1.2967,1.2999,1.3148,1.3154,1.3034,1.3039,1.3043,1.3046,0,0,0,0,0,0,0,1.2623,1.2642,1.2835,1.2784,1.2786,1.2776,1.2789,1.2888,1.2918,1.2841,1.2838,1.2853,1.2955,1.299,1.3002,1.3156,1.3034,1.3042,1.3047,1.3051,1.3424,1.3429,0,0,0,0,0,0,1.2613,1.2635,1.2831,1.2839,1.2696,1.2785,1.2798,1.2847,1.2917,1.2924,1.2857,1.2851,1.2977,1.2991,1.3006,1.3172,1.3043,1.3052,1.3057,1.342,1.3425,1.343,0,0,0,0,0,0,1.2608,1.2631,1.2826,1.2736,1.2761,1.2793,1.2848,1.2852,1.2887,1.2929,1.2934,1.2887,1.2974,1.2993,1.3109,1.3176,1.3056,1.3064,1.3415,1.3422,1.3428,1.3504,0,0,0,0,0,0,1.26,1.2629,1.2681,1.2738,1.2765,1.2926,1.2852,1.2857,1.2902,1.2895,1.2958,1.2965,1.2973,1.3096,1.3118,1.3186,1.3071,1.3409,1.3418,1.3426,1.3496,1.3513,1.3527,0,0,0,0,0,1.2591,1.2698,1.2684,1.2708,1.2831,1.293,1.2946,1.2952,1.2907,1.296,1.2987,1.2963,1.3164,1.3108,1.3132,1.3204,1.3405,1.3415,1.3425,1.3489,1.3509,1.3527,0,0,0,0,0,0,1.265,1.2706,1.269,1.2819,1.287,1.2923,1.299,1.2973,1.3039,1.3031,1.3035,1.305,1.3169,1.3197,1.3134,1.334,1.3278,1.3294,1.3318,1.3338,1.3353,1.3345,1.3078,0,0,0,0,0,1.2678,1.2753,1.2798,1.2908,1.2934,1.2957,1.3001,1.3,1.3054,1.3076,1.3111,1.3165,1.324,1.329,1.3362,1.3498,1.3513,1.356,1.3576,1.3588,1.3603,1.3679,1.3701,1.3464,1.3464,1.3464,0,0,1.2737,1.2777,1.2824,1.292,1.296,1.3039,1.2976,1.3062,1.3121,1.3089,1.3201,1.3228,1.3288,1.3415,1.3473,1.3443,1.3671,1.3601,1.3611,1.3619,1.3692,1.3714,1.3734,1.3471,1.347,1.3469,0,0,1.2886,1.2922,1.3018,1.3058,1.3118,1.3133,1.3156,1.3211,1.3228,1.3339,1.3317,1.3387,1.3516,1.3561,1.36,1.3763,1.3745,1.3786,1.387,1.3943,1.3962,1.3979,1.4039,1.4061,1.38,1.38,1.38,0,1.2952,1.3069,1.307,1.3158,1.3202,1.3174,1.3272,1.3311,1.3392,1.3423,1.3387,1.3549,1.3588,1.3725,1.3765,1.3797,1.3825,1.3781,1.3959,1.3976,1.3991,1.4049,1.4072,1.3805,1.3804,1.3804,1.3803,0,1.3149,1.3231,1.3301,1.3379,1.3429,1.3522,1.3538,1.3589,1.3584,1.3602,1.3716,1.3761,1.3842,1.3873,1.3869,1.4011,1.399,1.3957,1.3895,1.4019,1.4073,1.4095,1.3812,1.381,1.3809,1.3808,0,0,1.3342,1.3417,1.3443,1.3478,1.3541,1.3605,1.3696,1.3773,1.3818,1.3874,1.3952,1.4061,1.403,1.4075,1.4075,1.4139,1.4268,1.4098,1.41,1.4131,1.4429,1.4456,1.4482,1.4254,1.4259,1.4262,1.4425,0,1.3498,1.3658,1.366,1.3807,1.3883,1.3857,1.3937,1.3984,1.4004,1.4072,1.4093,1.4172,1.4124,1.4151,1.4213,1.424,1.4329,1.4227,1.433,1.4333,1.4319,1.451,1.4539,1.4691,1.4446,1.4449,1.4452,0,1.3702,1.3763,1.3918,1.397,1.4002,1.4073,1.4144,1.4209,1.4263,1.4272,1.4321,1.4312,1.4406,1.4338,1.4468,1.4399,1.444,1.446,1.4466,1.4478,1.4403,1.4531,1.4739,1.4763,1.4485,1.4483,1.448,0,1.383,1.3951,1.4059,1.409,1.4152,1.4204,1.4232,1.4281,1.4328,1.439,1.442,1.4492,1.4533,1.459,1.46,1.4549,1.4732,1.4664,1.4745,1.4745,1.4787,1.4785,1.5009,1.4809,1.4808,1.4808,1.4807,0,1.4006,1.4102,1.4118,1.4185,1.4293,1.4294,1.44,1.4425,1.4469,1.4541,1.4521,1.459,1.4598,1.4669,1.4677,1.4785,1.4803,1.4815,1.4817,1.4819,1.4818,1.4848,1.4839,1.4814,1.4813,1.4811,1.481,0,1.4169,1.4183,1.43,1.4349,1.4363,1.4441,1.4483,1.4548,1.4563,1.4655,1.4677,1.4703,1.4785,1.48,1.4897,1.4903,1.5033,1.5022,1.5015,1.5015,1.5095,1.5089,1.535,1.5385,1.5158,1.516,1.5162,0,1.4282,1.4356,1.4412,1.4458,1.4489,1.4564,1.4611,1.4614,1.4664,1.473,1.4787,1.4866,1.4931,1.5064,1.5092,1.5167,1.516,1.5246,1.5171,1.5171,1.5165,1.5161,1.517,1.5261,1.5264,1.5266,1.5267,0,1.4482,1.4485,1.4552,1.4623,1.4679,1.4734,1.4787,1.4826,1.4837,1.4893,1.4977,1.5026,1.5125,1.5205,1.5279,1.5309,1.5292,1.529,1.5313,1.5318,1.5312,1.5319,1.5058,1.5285,1.5283,1.5282,1.5281,1.528,1.4626,1.469,1.474,1.4816,1.4855,1.4905,1.4968,1.4991,1.506,1.514,1.5137,1.5229,1.5281,1.5377,1.5412,1.5485,1.5458,1.549,1.5499,1.5508,1.5517,1.5297,1.5498,1.5497,1.5497,1.5497,1.5496,0,1.4827,1.4857,1.4927,1.5001,1.5061,1.5035,1.5092,1.5144,1.5225,1.5274,1.5337,1.5433,1.551,1.5543,1.562,1.5671,1.5665,1.5692,1.569,1.5698,1.5536,1.551,1.5695,1.5695,1.5695,1.5695,1.5695,1.5695,1.4939,1.5048,1.5056,1.5184,1.5213,1.5302,1.5337,1.5383,1.5422,1.5529,1.5593,1.5613,1.5656,1.5735,1.5805,1.5813,1.5844,1.5875,1.5879,1.5729,1.5709,1.569,1.5665,1.588,1.5881,1.6035,1.6036,1.6037]},{"header":{"parameterUnit":"m.s-1","parameterCategory":1,"la1":30.2991,"la2":30.254,"lo1":-89.0895,"lo2":-89.0444,"dy":0.0017,"dx":0.0017,"nx":28,"ny":28,"refTime":"2025-03-11T09:00:00:Z","depth":0,"parameterNumber":3,"parameterNumberName":"V-component_of_WINDS"},"data":[0,0,0,0,0,0,0,0,0,0,0,0,0,0,0,0,0,0,0,0,0,0,0,0,0,0,0,0,0,0,0,0,0,0,0,0,0,0,0,0,0,0,0,0,0,0,0,0,0,0,0,0,0,0,0,0,0,0,4.4016,4.4018,0,4.4117,4.4118,4.4119,4.4051,4.4048,4.4045,4.4042,4.4138,4.4143,4.4149,0,0,0,0,0,0,0,0,0,0,0,0,0,4.3759,4.3764,4.4016,4.4018,4.4019,4.4116,4.4118,4.4119,4.4051,4.4048,4.4044,4.404,4.4136,4.4143,4.4149,0,0,0,0,0,0,0,0,0,0,0,0,0,4.3866,4.3766,4.4016,4.3997,4.3996,4.4116,4.4118,4.412,4.4052,4.4047,4.4043,4.4039,4.4134,4.4142,4.415,4.4293,0,0,4.4175,4.4179,0,0,0,0,0,0,0,0,4.386,4.3875,4.3999,4.3999,4.3998,4.4067,4.4062,4.4177,4.4053,4.4031,4.4042,4.4036,4.4118,4.4127,4.4156,4.4297,4.4301,4.4176,4.4181,4.4184,4.4187,0,0,0,0,0,0,0,4.3853,4.3871,4.4056,4.4,4.4,4.3981,4.3991,4.4084,4.4099,4.4032,4.4028,4.4041,4.4117,4.4148,4.4157,4.4303,4.4176,4.4183,4.4188,4.4191,4.4564,4.4569,0,0,0,0,0,0,4.3848,4.3865,4.4053,4.4059,4.3916,4.3989,4.4001,4.4049,4.4097,4.4101,4.4045,4.4037,4.4136,4.4148,4.4161,4.433,4.4184,4.4192,4.4197,4.4559,4.4565,4.4571,0,0,0,0,0,0,4.3843,4.3865,4.4049,4.3961,4.3983,4.3999,4.4054,4.4054,4.4085,4.4107,4.4108,4.4075,4.4133,4.4149,4.426,4.4332,4.4196,4.4203,4.4553,4.4561,4.4568,4.4671,0,0,0,0,0,0,4.3836,4.3864,4.392,4.3963,4.3988,4.4149,4.4058,4.4059,4.41,4.4091,4.4135,4.4138,4.4131,4.4249,4.4269,4.4341,4.4209,4.4547,4.4557,4.4566,4.4661,4.4681,4.4698,0,0,0,0,0,4.3827,4.3944,4.3923,4.3946,4.4059,4.4154,4.4168,4.4159,4.4106,4.4161,4.4175,4.4137,4.4321,4.4261,4.4282,4.4359,4.4542,4.4554,4.4565,4.4653,4.4677,4.4697,0,0,0,0,0,0,4.3907,4.3949,4.3927,4.4062,4.4105,4.4142,4.4212,4.4185,4.4242,4.4232,4.4216,4.4226,4.4343,4.4361,4.4293,4.4498,4.4423,4.4439,4.4482,4.4505,4.4523,4.4517,4.4216,0,0,0,0,0,4.3941,4.4017,4.4048,4.4164,4.4187,4.4196,4.4237,4.4227,4.427,4.4287,4.4309,4.4351,4.4418,4.4462,4.4525,4.4663,4.467,4.4726,4.4744,4.4759,4.4773,4.4846,4.4871,4.4608,4.4608,4.4608,0,0,4.4011,4.4043,4.4092,4.4181,4.4214,4.4291,4.4212,4.4297,4.4353,4.4299,4.4407,4.4424,4.4469,4.4594,4.465,4.4613,4.4847,4.4773,4.4785,4.4791,4.486,4.4885,4.4907,4.4616,4.4614,4.4613,0,0,4.4178,4.4211,4.4311,4.4345,4.4395,4.44,4.4424,4.4466,4.4476,4.4583,4.4544,4.4609,4.4726,4.476,4.4792,4.497,4.4937,4.4991,4.5087,4.5159,4.5179,4.5197,4.5261,4.5284,4.5005,4.5005,4.5005,0,4.4258,4.4375,4.4365,4.4453,4.4493,4.4449,4.4549,4.4582,4.4649,4.4677,4.4634,4.4779,4.4806,4.4938,4.4982,4.501,4.5035,4.4986,4.5178,4.5196,4.5213,4.5273,4.5296,4.5012,4.5011,4.501,4.501,0,4.4471,4.4552,4.4626,4.4695,4.4743,4.4837,4.4838,4.4887,4.4872,4.488,4.4989,4.502,4.5088,4.5118,4.5104,4.5248,4.5223,4.518,4.5104,4.5244,4.53,4.5323,4.5021,4.5018,4.5016,4.5015,0,0,4.4693,4.4755,4.4782,4.4812,4.4864,4.4926,4.5016,4.5084,4.5126,4.5174,4.5248,4.5347,4.5307,4.5343,4.5331,4.5394,4.5533,4.5342,4.5343,4.5377,4.5692,4.5725,4.5752,4.551,4.5515,4.5518,4.5689,0,4.4863,4.5024,4.5016,4.5165,4.524,4.5198,4.5276,4.5315,4.5325,4.5387,4.5397,4.5468,4.5409,4.5431,4.5491,4.5503,4.5596,4.5491,4.5578,4.5581,4.5569,4.5782,4.5817,4.5977,4.571,4.5714,4.5717,0,4.5084,4.5141,4.5298,4.5338,4.5369,4.544,4.5502,4.5562,4.5604,4.5607,4.5648,4.5625,4.5714,4.5636,4.5757,4.5685,4.572,4.5731,4.5737,4.5745,4.5658,4.5796,4.6027,4.6052,4.5751,4.5749,4.5746,0,4.523,4.5346,4.5455,4.5482,4.5531,4.5582,4.5604,4.5642,4.5684,4.5736,4.5763,4.5824,4.5858,4.5905,4.5899,4.5843,4.6022,4.5943,4.6025,4.6025,4.6065,4.6063,4.6306,4.6087,4.6087,4.6086,4.6086,0,4.5421,4.5519,4.5521,4.5588,4.5696,4.5685,4.579,4.5807,4.5841,4.5908,4.5875,4.5939,4.5927,4.5989,4.5984,4.6085,4.61,4.6103,4.6101,4.6107,4.6106,4.613,4.6118,4.6093,4.6091,4.609,4.6089,0,4.5603,4.5609,4.5725,4.5762,4.5774,4.5852,4.5882,4.5944,4.5951,4.6037,4.6056,4.6066,4.6138,4.6137,4.6218,4.6214,4.6338,4.6322,4.6325,4.6321,4.6403,4.6396,4.667,4.6705,4.6463,4.6466,4.6468,0,4.5725,4.58,4.5846,4.589,4.5916,4.5987,4.603,4.6021,4.6066,4.6119,4.6174,4.6243,4.6299,4.6415,4.6428,4.6489,4.6475,4.6567,4.6484,4.6487,4.6476,4.6472,4.6479,4.6584,4.6586,4.6588,4.659,0,4.5941,4.594,4.6004,4.6069,4.6121,4.6171,4.6217,4.6254,4.6249,4.6301,4.6376,4.6419,4.6502,4.6571,4.663,4.6649,4.6619,4.6616,4.6638,4.6645,4.6644,4.6646,4.6369,4.661,4.6608,4.6607,4.6606,4.6605,4.6097,4.6161,4.6204,4.6275,4.6309,4.6352,4.6413,4.6427,4.649,4.6559,4.6549,4.6632,4.6669,4.6746,4.6771,4.6834,4.6801,4.6834,4.6842,4.685,4.6859,4.6633,4.6845,4.6844,4.6844,4.6843,4.6843,0,4.6311,4.6336,4.6402,4.6469,4.6525,4.6492,4.6541,4.6589,4.6664,4.6703,4.6758,4.6842,4.6908,4.6926,4.6989,4.7036,4.7024,4.7053,4.7049,4.7054,4.6885,4.686,4.7062,4.7062,4.7062,4.7062,4.7062,4.7062,4.6429,4.6536,4.654,4.6662,4.6685,4.6768,4.6799,4.6838,4.6869,4.6966,4.7021,4.7033,4.7063,4.7128,4.7186,4.7189,4.7214,4.7249,4.7247,4.7088,4.7066,4.7045,4.7022,4.7255,4.7255,4.7411,4.7412,4.7413]}]]